EHI
0 0 0 0 0 0 0 0 0 0 1 2 1 0 1 3 6 7 6 6 6 6 9 10 11 12 9 5 4 3 2 1 0 0 0 0 0 0 0 0 0 0 0 0
0 0 0 0 0 0 0 0 0 0 1 1 1 0 0 2 5 6 6 6 6 8 10 10 10 10 8 5 4 3 1 0 0 0 0 0 0 0 0 0 0 0 0 0
0 0 0 0 0 0 0 0 0 0 0 0 0 0 0 1 2 3 4 4 6 9 11 10 8 8 6 4 3 2 1 0 0 0 0 0 0 0 0 0 0 0 0 0
0 0 0 0 0 0 0 0 0 0 0 0 0 0 0 0 0 1 3 4 5 8 11 9 7 5 4 3 3 1 0 0 0 0 0 0 0 0 0 0 0 0 0 0
0 0 0 0 0 0 0 0 0 0 0 0 0 0 0 0 0 1 3 5 6 7 9 8 6 4 3 3 2 1 0 0 0 0 0 0 0 0 0 0 0 0 0 0
0 0 0 0 0 0 0 0 0 0 0 0 0 0 0 0 0 0 2 5 6 6 8 8 7 4 3 3 2 1 0 0 0 0 0 0 0 0 0 0 0 0 0 0
0 0 0 0 0 0 0 0 0 0 0 0 0 0 0 0 0 0 1 3 4 5 6 8 7 4 3 1 1 0 0 0 0 0 0 0 0 0 0 0 0 0 0 0
0 0 0 0 0 0 0 0 0 0 0 0 0 0 0 0 0 0 0 1 3 3 4 5 4 3 2 1 0 0 0 0 0 0 0 0 0 0 0 0 0 0 0 0
0 0 0 0 0 0 0 0 0 0 0 0 0 0 0 0 0 0 0 1 2 2 3 3 2 1 1 0 0 0 0 0 0 0 0 0 0 0 0 0 0 0 0 0
0 0 0 0 0 0 0 0 0 0 0 0 0 0 0 0 0 0 0 0 1 1 1 1 1 0 0 0 0 0 0 0 0 0 0 0 0 0 0 0 0 0 0 0
0 0 0 0 0 0 0 0 0 0 0 0 0 0 0 0 0 0 0 0 0 0 0 0 0 0 0 0 0 0 0 0 0 0 1 1 1 0 0 0 0 0 0 0
0 0 0 0 0 0 0 0 0 0 0 0 0 0 0 0 0 0 0 0 0 0 0 0 0 0 0 0 0 0 0 0 0 1 2 2 1 0 0 0 0 0 0 0
0 0 0 0 0 0 0 0 0 0 0 0 0 0 0 0 0 0 0 0 0 0 0 0 0 1 0 0 0 0 0 0 0 1 3 2 1 0 0 0 0 0 0 0
0 0 0 0 0 0 0 0 0 0 0 0 0 0 0 0 0 0 0 0 0 0 0 0 0 1 1 0 0 0 0 0 1 2 3 3 1 0 0 0 0 0 0 0
0 0 0 0 0 0 0 0 0 0 0 0 0 0 0 0 0 0 0 0 0 0 0 0 0 0 1 0 0 1 1 2 2 4 4 2 1 0 0 0 0 0 0 0
0 0 0 0 0 0 0 0 0 0 0 0 0 0 0 0 0 0 0 0 0 0 0 0 0 0 0 0 0 1 2 3 3 4 3 1 0 0 0 0 0 0 0 0
0 0 0 0 0 0 0 0 0 0 0 0 0 0 0 0 0 0 0 0 0 0 0 0 0 0 0 0 0 0 1 2 2 2 1 0 0 0 0 0 0 0 0 0
0 0 0 0 0 0 0 0 0 0 0 0 0 0 0 0 0 0 0 0 0 0 0 0 0 0 0 0 0 0 0 1 1 0 0 0 0 0 0 0 0 0 0 0
0 0 0 0 0 0 0 0 0 0 0 0 0 0 0 0 0 0 0 0 0 0 0 0 0 0 0 0 0 0 0 0 0 0 0 0 0 0 0 0 0 0 0 0
0 0 0 0 0 0 0 0 0 0 0 0 0 0 0 0 0 0 0 0 0 0 0 0 0 0 0 0 0 0 0 0 0 0 0 0 0 0 0 0 0 0 0 0
0 0 0 0 0 0 0 0 0 0 0 0 0 0 0 0 0 0 0 0 0 0 0 0 0 0 0 0 0 0 0 0 0 0 0 0 0 0 0 0 0 0 0 0
0 0 0 0 0 0 0 0 0 0 0 0 0 0 0 0 0 0 0 0 0 0 0 0 0 0 0 0 0 0 0 0 0 0 0 0 0 0 0 0 0 0 0 0
0 0 0 0 0 0 0 0 0 0 0 0 0 0 0 0 0 0 0 0 0 0 0 0 0 0 0 0 0 0 0 0 0 0 0 0 0 0 0 0 0 0 0 0
0 0 0 0 0 0 0 0 0 0 0 0 0 0 0 0 0 0 0 0 0 0 0 0 0 0 0 0 0 0 0 0 0 0 0 0 0 0 0 0 0 0 0 0
0 0 0 0 0 0 0 0 0 0 0 0 0 0 0 0 0 0 0 0 0 0 0 0 0 0 0 0 0 0 0 0 0 0 0 0 0 0 0 0 0 0 0 0
0 0 0 0 0 0 0 0 0 0 0 0 0 0 0 0 0 0 0 0 0 0 0 0 0 0 0 0 0 0 0 0 0 0 0 0 0 0 0 0 0 0 0 0
Wind_Speed
1 2 4 7 8 7 4 4 5 4 2 3 4 5 3 4 4 5 5 6 6 6 4 6 6 7 7 6 6 6 6 6 5 4 3 3 2 2 1 1 2 2 2 3
3 5 9 5 4 4 4 3 3 1 1 2 2 4 3 3 5 5 5 6 6 5 6 7 7 8 8 7 7 6 7 7 6 4 3 3 3 2 1 1 1 2 2 3
6 8 3 1 2 1 2 4 4 2 1 3 1 4 2 2 3 4 4 5 6 8 8 8 8 7 8 8 9 8 7 7 6 5 4 4 3 3 2 1 1 1 2 2
7 7 2 2 3 3 4 3 3 3 3 2 2 3 5 3 3 5 5 5 6 7 7 8 9 9 9 9 7 7 7 6 6 6 6 6 4 3 3 2 2 1 1 2
7 3 2 3 4 4 2 4 4 3 3 2 2 0 7 1 4 7 8 8 7 8 9 10 10 10 9 8 7 6 6 6 5 6 6 5 4 3 2 1 2 1 0 1
7 3 3 3 2 4 6 6 6 5 5 2 1 1 7 4 7 6 6 8 8 8 9 8 7 6 6 6 7 7 7 6 6 6 6 6 6 5 4 3 3 1 1 1
5 3 2 3 4 2 4 5 4 5 4 5 2 2 9 7 6 7 8 9 9 9 9 8 8 8 8 9 8 8 8 7 6 7 6 6 7 7 6 5 4 3 2 1
3 6 3 3 5 6 4 6 6 4 4 5 2 5 8 5 4 4 5 6 8 9 9 10 11 10 10 10 9 9 9 8 8 7 7 6 6 4 4 5 4 4 3 3
7 6 2 0 2 7 5 3 4 6 2 2 5 7 9 2 1 2 4 6 8 9 10 11 10 10 10 10 10 11 10 8 8 8 7 6 6 6 5 5 4 3 3 3
8 4 2 0 3 4 4 7 5 5 3 3 5 5 5 4 4 4 5 7 8 8 9 9 9 10 10 10 9 9 10 10 9 8 8 7 7 6 6 5 5 5 4 4
4 4 2 2 2 3 3 4 5 4 4 4 3 8 7 7 7 8 9 9 9 10 11 10 9 9 9 8 8 9 9 8 8 9 8 7 7 6 6 5 6 5 5 5
4 5 1 3 2 1 3 5 7 4 3 4 3 10 5 5 5 7 8 8 8 9 9 9 9 8 8 9 9 10 10 10 9 9 8 8 7 7 7 7 7 6 6 6
6 6 3 4 4 1 1 3 4 5 5 4 4 9 4 2 2 4 6 7 7 7 7 7 7 9 10 11 10 11 11 11 9 9 9 8 7 8 8 8 7 7 7 6
6 5 6 8 8 4 3 3 5 6 4 5 8 9 8 5 4 5 6 6 6 6 7 8 8 9 10 10 10 11 10 10 9 9 9 9 10 10 9 8 7 7 7 7
5 4 4 5 4 3 4 5 7 7 8 8 8 8 9 5 6 6 5 5 5 5 6 8 9 9 8 9 9 10 10 9 10 10 10 11 10 8 8 7 8 7 7 8
3 4 2 2 2 3 3 5 6 7 5 6 5 7 4 4 3 2 1 1 3 4 5 6 7 8 9 10 10 9 10 10 10 11 12 9 8 8 8 8 8 7 8 7
2 4 3 3 2 1 5 6 5 4 4 5 7 6 2 2 2 2 3 2 1 2 3 3 4 6 8 8 9 10 9 7 8 9 8 8 8 9 9 8 8 8 8 7
5 4 3 1 1 4 7 2 3 3 3 3 3 3 1 1 1 3 4 3 3 3 2 1 2 3 4 4 5 5 6 7 8 8 7 7 8 8 7 7 8 8 7 7
4 6 4 3 2 6 5 2 3 3 3 4 4 3 1 0 2 4 6 5 4 4 3 2 1 1 1 1 3 5 5 5 6 7 8 8 8 8 8 9 9 8 6 7
5 4 5 4 3 6 7 1 2 3 4 3 3 2 1 3 2 2 6 6 7 7 6 6 6 6 6 3 4 5 3 4 5 6 5 5 6 7 8 8 8 6 6 8
2 3 3 3 4 8 5 1 4 3 6 1 2 1 2 3 2 1 4 6 7 8 9 9 9 9 7 4 5 4 2 1 2 1 2 3 4 6 6 6 5 5 6 6
6 4 4 4 3 8 2 3 5 5 1 2 2 3 5 5 4 5 6 7 8 9 10 10 11 10 8 7 6 4 2 2 1 1 1 1 2 3 3 4 4 4 5 6
6 7 6 8 8 5 2 3 2 3 2 2 3 4 7 7 6 6 7 7 9 9 9 8 10 9 8 7 6 5 4 3 3 3 2 2 1 1 1 2 3 3 3 4
3 3 3 4 7 4 3 2 2 3 4 5 6 7 8 9 7 7 6 7 8 8 9 9 10 9 8 7 7 5 4 4 4 4 3 3 2 2 2 1 1 2 3 4
4 5 3 5 6 3 2 3 4 5 8 9 8 7 8 10 8 6 6 6 6 6 6 6 7 7 6 6 6 6 5 4 5 4 3 3 2 2 2 2 2 3 4 5
4 7 7 7 6 5 3 3 6 8 9 10 10 8 7 8 8 7 6 4 4 5 4 5 6 5 4 5 5 6 5 4 4 4 4 3 3 2 2 3 4 5 6 9
Wind_Direction
62 51 253 238 209 217 230 239 255 252 170 166 233 256 244 192 209 216 198 190 189 194 178 163 151 150 152 158 158 158 148 145 142 135 134 135 145 145 144 167 163 151 141 131
4 271 246 242 214 205 210 237 261 282 115 152 254 273 257 202 217 222 210 201 194 174 164 166 160 158 165 175 175 165 162 160 164 153 144 141 133 139 145 138 146 171 160 151
222 251 275 298 290 185 217 205 224 198 78 46 0 318 281 244 235 239 227 203 191 179 176 177 171 170 171 185 185 177 173 166 162 144 120 99 81 69 83 129 188 212 186 171
237 259 260 279 268 177 253 241 174 136 103 334 29 301 288 250 259 243 234 212 196 185 178 179 175 175 187 195 183 171 170 164 160 152 151 150 155 169 193 185 188 203 193 185
250 238 254 266 255 177 183 65 88 89 102 28 15 294 288 296 253 242 226 216 203 188 181 185 185 184 188 184 176 169 164 164 162 162 162 153 152 163 152 145 167 183 219 209
251 245 225 218 44 112 119 73 56 51 62 349 269 184 280 236 225 234 218 210 204 195 188 190 187 175 175 173 172 166 167 173 168 165 164 163 164 162 158 168 173 187 210 239
296 290 220 131 99 62 90 86 27 356 4 270 248 224 254 248 226 214 207 206 199 192 190 189 187 184 184 182 179 173 175 182 177 171 173 176 175 172 177 180 184 183 189 206
237 285 245 182 167 171 172 142 157 206 240 285 300 250 257 256 240 215 192 190 187 186 191 195 194 192 192 191 184 180 185 187 180 180 184 180 177 175 184 186 182 187 194 204
192 244 296 124 146 136 137 154 157 131 141 299 289 287 301 270 243 190 177 177 189 192 195 199 196 194 194 193 191 188 188 188 186 186 181 181 182 184 188 186 182 187 198 202
166 213 285 14 80 43 121 140 103 114 146 271 299 287 264 254 220 197 193 196 205 200 199 201 198 199 200 199 194 186 188 192 188 183 184 189 189 191 186 178 188 198 203 202
144 156 308 44 160 174 114 104 105 112 151 163 263 275 234 223 207 199 207 206 202 200 202 203 202 200 197 192 186 187 189 188 184 186 187 186 188 189 184 191 200 200 201 201
140 122 203 268 267 173 163 166 148 151 212 176 189 267 275 234 220 206 210 211 207 206 206 202 198 190 189 191 190 191 191 191 192 186 184 190 188 184 190 203 208 201 205 207
134 115 82 349 339 342 151 157 147 126 120 155 183 263 299 359 260 228 224 221 212 208 206 199 192 193 197 196 193 193 193 195 188 178 183 189 190 191 199 207 207 203 206 209
114 123 162 194 217 205 207 186 156 137 156 198 222 252 289 311 291 265 243 233 222 214 208 202 202 204 201 197 194 193 195 191 182 179 185 195 200 200 203 204 204 206 207 208
112 155 206 231 233 192 215 215 183 190 195 195 230 234 261 272 271 266 253 231 222 225 218 211 209 207 200 197 196 195 194 188 182 182 192 204 203 199 200 204 207 209 210 215
97 154 175 266 247 211 249 251 208 212 211 222 247 262 266 292 300 305 301 197 216 236 228 216 210 204 200 199 198 194 195 189 180 189 201 202 194 196 204 209 209 210 215 217
119 134 139 253 314 36 261 241 208 209 210 197 220 245 321 343 8 1 11 35 338 281 266 233 211 209 207 201 194 195 196 177 181 197 201 195 195 204 210 211 210 215 218 216
134 122 133 158 63 236 249 273 189 191 235 222 240 263 263 201 126 52 33 29 6 350 335 283 230 222 216 193 185 181 160 168 187 200 206 201 199 210 210 207 216 220 215 215
127 132 119 123 194 276 287 237 167 167 261 219 222 246 250 165 80 41 19 15 14 357 341 327 359 79 96 138 155 139 151 167 187 206 212 208 203 208 207 212 220 218 214 221
64 90 113 133 174 243 252 214 143 105 279 238 197 228 352 47 72 354 351 6 16 22 24 26 39 49 50 56 106 122 149 169 208 220 221 209 199 206 214 219 221 216 216 228
64 63 117 161 219 261 256 168 117 166 248 257 148 139 83 92 141 257 6 30 30 34 39 45 51 49 39 49 92 97 96 208 232 206 190 191 200 210 218 222 222 220 223 232
169 156 173 149 205 260 237 139 177 216 261 92 103 107 106 106 88 63 49 44 42 40 40 48 53 45 31 32 62 68 29 338 42 88 127 209 217 229 225 220 233 230 229 239
189 186 183 188 213 236 226 209 211 163 136 123 118 115 114 101 83 69 58 52 49 47 45 49 59 53 37 28 46 54 4 7 37 48 38 19 15 322 281 237 244 249 237 244
239 156 160 243 262 246 240 220 169 147 130 119 116 116 113 102 88 76 67 58 55 50 48 50 57 53 37 25 35 38 20 31 53 49 32 29 27 1 334 306 272 257 254 255
215 165 189 253 270 281 258 186 149 121 110 106 101 104 111 107 98 92 81 67 62 60 56 60 67 62 41 27 28 22 22 45 56 48 35 25 16 351 334 319 284 269 256 251
199 180 182 227 229 190 211 164 141 128 124 124 118 103 97 105 109 100 88 77 72 67 63 63 60 54 35 27 23 14 15 38 50 36 19 7 354 343 335 327 319 291 275 285